Time,TemperatureF,DewpointF,PressureIn,WindDirection,WindDirectionDegrees,WindSpeedMPH,WindSpeedGustMPH,Humidity,HourlyPrecipIn,Conditions,Clouds,dailyrainin,SolarRadiationWatts/m^2,SoftwareType,DateUTC
2013-07-12 00:01:00,73.0,71.0,-100.00,NW,317,2.0,4.0,94,0.00,,,0.54,0.000000,,2013-07-12 04:01:00,
2013-07-12 00:32:00,73.0,71.0,-100.00,SSW,211,0.0,2.0,95,0.00,,,0.54,0.000000,,2013-07-12 04:32:00,
2013-07-12 00:43:00,73.0,71.0,-100.00,SSW,211,0.0,2.0,95,0.00,,,0.54,0.000000,,2013-07-12 04:43:00,
2013-07-12 00:53:00,73.0,71.0,-100.00,SSW,211,0.0,2.0,95,0.00,,,0.54,0.000000,,2013-07-12 04:53:00,
2013-07-12 01:02:00,73.0,71.0,-100.00,SSW,211,0.0,2.0,95,0.00,,,0.54,0.000000,,2013-07-12 05:02:00,
2013-07-12 01:32:00,73.0,71.0,-100.00,SSE,161,0.0,0.0,95,0.00,,,0.54,0.000000,,2013-07-12 05:32:00,
2013-07-12 01:43:00,73.0,71.0,-100.00,SSE,161,0.0,0.0,95,0.00,,,0.54,0.000000,,2013-07-12 05:43:00,
2013-07-12 01:53:00,73.0,71.0,-100.00,SSE,161,0.0,0.0,95,0.00,,,0.54,0.000000,,2013-07-12 05:53:00,
2013-07-12 02:01:00,73.0,71.0,-100.00,SSE,161,0.0,0.0,95,0.00,,,0.54,0.000000,,2013-07-12 06:01:00,
2013-07-12 02:33:00,73.0,71.0,-100.00,South,178,1.0,3.0,95,0.00,,,0.54,0.000000,,2013-07-12 06:33:00,
2013-07-12 02:42:00,73.0,71.0,-100.00,South,178,1.0,3.0,95,0.00,,,0.54,0.000000,,2013-07-12 06:42:00,
2013-07-12 02:52:00,73.0,71.0,-100.00,South,178,1.0,3.0,95,0.00,,,0.54,0.000000,,2013-07-12 06:52:00,
2013-07-12 03:02:00,73.0,71.0,-100.00,South,178,1.0,3.0,95,0.00,,,0.54,0.000000,,2013-07-12 07:02:00,
2013-07-12 03:22:00,73.0,71.0,-100.00,WSW,252,1.0,3.0,95,0.00,,,0.54,0.000000,,2013-07-12 07:22:00,
2013-07-12 03:33:00,73.0,71.0,-100.00,WSW,252,1.0,3.0,95,0.00,,,0.54,0.000000,,2013-07-12 07:33:00,
2013-07-12 03:43:00,73.0,71.0,-100.00,WSW,252,1.0,3.0,95,0.00,,,0.54,0.000000,,2013-07-12 07:43:00,
2013-07-12 03:52:00,73.0,71.0,-100.00,WSW,252,1.0,3.0,95,0.00,,,0.54,0.000000,,2013-07-12 07:52:00,
2013-07-12 04:01:00,73.0,71.0,-100.00,WSW,252,1.0,3.0,95,0.00,,,0.54,0.000000,,2013-07-12 08:01:00,
2013-07-12 04:32:00,73.0,71.0,-100.00,ESE,112,0.0,3.0,95,0.00,,,0.54,0.000000,,2013-07-12 08:32:00,
2013-07-12 04:42:00,73.0,71.0,-100.00,ESE,112,0.0,3.0,95,0.00,,,0.54,0.000000,,2013-07-12 08:42:00,
2013-07-12 04:53:00,73.0,71.0,-100.00,ESE,112,0.0,3.0,95,0.00,,,0.54,0.000000,,2013-07-12 08:53:00,
2013-07-12 05:02:00,73.0,71.0,-100.00,ESE,112,0.0,3.0,95,0.00,,,0.54,0.000000,,2013-07-12 09:02:00,
2013-07-12 05:22:00,73.0,71.0,-100.00,SW,220,1.0,3.0,95,0.00,,,0.54,0.000000,,2013-07-12 09:22:00,
2013-07-12 05:32:00,73.0,71.0,-100.00,SW,220,1.0,3.0,95,0.00,,,0.54,0.000000,,2013-07-12 09:32:00,
2013-07-12 05:43:00,73.0,71.0,-100.00,SW,220,1.0,3.0,95,0.00,,,0.54,0.000000,,2013-07-12 09:43:00,
2013-07-12 05:52:00,73.0,71.0,-100.00,SW,220,1.0,3.0,95,0.00,,,0.54,0.000000,,2013-07-12 09:52:00,
2013-07-12 06:01:00,73.0,71.0,-100.00,SW,220,1.0,3.0,95,0.00,,,0.54,0.000000,,2013-07-12 10:01:00,
2013-07-12 06:33:00,73.0,71.0,-100.00,SSW,213,0.0,2.0,95,0.00,,,0.54,0.000000,,2013-07-12 10:33:00,
2013-07-12 06:42:00,73.0,71.0,-100.00,SSW,213,0.0,2.0,95,0.00,,,0.54,0.000000,,2013-07-12 10:42:00,
2013-07-12 06:52:00,73.0,71.0,-100.00,SSW,213,0.0,2.0,95,0.00,,,0.54,0.000000,,2013-07-12 10:52:00,
2013-07-12 07:02:00,73.0,71.0,-100.00,SSW,213,0.0,2.0,95,0.00,,,0.54,0.000000,,2013-07-12 11:02:00,
2013-07-12 07:32:00,73.0,71.0,-100.00,SE,132,1.0,2.0,95,0.00,,,0.54,3.000000,,2013-07-12 11:32:00,
2013-07-12 07:43:00,73.0,71.0,-100.00,SE,132,1.0,2.0,95,0.00,,,0.54,3.000000,,2013-07-12 11:43:00,
2013-07-12 07:53:00,73.0,71.0,-100.00,SE,132,1.0,2.0,95,0.00,,,0.54,3.000000,,2013-07-12 11:53:00,
2013-07-12 08:02:00,73.0,71.0,-100.00,SE,132,1.0,2.0,95,0.00,,,0.54,3.000000,,2013-07-12 12:02:00,
2013-07-12 08:32:00,74.0,72.0,-100.00,West,266,1.0,3.0,95,0.00,,,0.54,26.000000,,2013-07-12 12:32:00,
2013-07-12 08:43:00,74.0,72.0,-100.00,West,266,1.0,3.0,95,0.00,,,0.54,26.000000,,2013-07-12 12:43:00,
2013-07-12 08:53:00,74.0,72.0,-100.00,West,266,1.0,3.0,95,0.00,,,0.54,26.000000,,2013-07-12 12:53:00,
2013-07-12 09:01:00,74.0,72.0,-100.00,West,266,1.0,3.0,95,0.00,,,0.54,26.000000,,2013-07-12 13:01:00,
2013-07-12 09:32:00,76.0,74.0,-100.00,SW,235,1.0,4.0,95,0.00,,,0.54,91.000000,,2013-07-12 13:32:00,
2013-07-12 09:43:00,76.0,74.0,-100.00,SW,235,1.0,4.0,95,0.00,,,0.54,91.000000,,2013-07-12 13:43:00,
2013-07-12 09:53:00,76.0,74.0,-100.00,SW,235,1.0,4.0,95,0.00,,,0.54,91.000000,,2013-07-12 13:53:00,
2013-07-12 10:02:00,76.0,74.0,-100.00,SW,235,1.0,4.0,95,0.00,,,0.54,91.000000,,2013-07-12 14:02:00,
2013-07-12 10:32:00,79.0,76.0,-100.00,WSW,245,3.0,7.0,90,0.00,,,0.54,224.000000,,2013-07-12 14:32:00,
2013-07-12 10:44:00,79.0,76.0,-100.00,WSW,245,3.0,7.0,90,0.00,,,0.54,224.000000,,2013-07-12 14:44:00,
2013-07-12 10:53:00,79.0,76.0,-100.00,WSW,245,3.0,7.0,90,0.00,,,0.54,224.000000,,2013-07-12 14:53:00,
2013-07-12 11:02:00,79.0,76.0,-100.00,WSW,245,3.0,7.0,90,0.00,,,0.54,224.000000,,2013-07-12 15:02:00,
2013-07-12 11:33:00,84.0,76.0,-100.00,West,280,4.0,8.0,78,0.00,,,0.54,528.000000,,2013-07-12 15:33:00,
2013-07-12 11:43:00,84.0,76.0,-100.00,West,280,4.0,8.0,78,0.00,,,0.54,528.000000,,2013-07-12 15:43:00,
2013-07-12 11:53:00,84.0,76.0,-100.00,West,280,4.0,8.0,78,0.00,,,0.54,528.000000,,2013-07-12 15:53:00,
2013-07-12 12:01:00,84.0,76.0,-100.00,West,280,4.0,8.0,78,0.00,,,0.54,528.000000,,2013-07-12 16:01:00,
2013-07-12 12:04:00,84.0,75.0,-100.00,WSW,256,3.0,8.0,74,0.00,,,0.54,455.000000,,2013-07-12 16:04:00,
2013-07-12 12:32:00,84.0,75.0,-100.00,WSW,256,3.0,8.0,74,0.00,,,0.54,455.000000,,2013-07-12 16:32:00,
2013-07-12 12:43:00,84.0,75.0,-100.00,WSW,256,3.0,8.0,74,0.00,,,0.54,455.000000,,2013-07-12 16:43:00,
2013-07-12 13:04:00,83.0,74.0,-100.00,West,278,4.0,9.0,75,0.00,,,0.54,406.000000,,2013-07-12 17:04:00,
2013-07-12 13:40:00,83.0,74.0,-100.00,West,278,4.0,9.0,75,0.00,,,0.54,406.000000,,2013-07-12 17:40:00,
2013-07-12 13:47:00,83.0,74.0,-100.00,West,278,4.0,9.0,75,0.00,,,0.54,406.000000,,2013-07-12 17:47:00,
2013-07-12 13:56:00,83.0,74.0,-100.00,West,278,4.0,9.0,75,0.00,,,0.54,406.000000,,2013-07-12 17:56:00,
2013-07-12 14:04:00,85.0,74.0,-100.00,West,275,4.0,9.0,70,0.00,,,0.54,508.000000,,2013-07-12 18:04:00,
2013-07-12 14:35:00,85.0,74.0,-100.00,West,275,4.0,9.0,70,0.00,,,0.54,508.000000,,2013-07-12 18:35:00,
2013-07-12 14:51:00,85.0,74.0,-100.00,West,275,4.0,9.0,70,0.00,,,0.54,508.000000,,2013-07-12 18:51:00,
2013-07-12 14:58:00,85.0,74.0,-100.00,West,275,4.0,9.0,70,0.00,,,0.54,508.000000,,2013-07-12 18:58:00,
2013-07-12 15:35:00,87.0,73.0,-100.00,SW,226,2.0,7.0,63,0.00,,,0.54,546.000000,,2013-07-12 19:35:00,
2013-07-12 16:35:00,83.0,73.0,-100.00,South,173,2.0,6.0,71,-99.99,,,0.50,274.000000,,2013-07-12 20:35:00,
2013-07-12 16:47:00,83.0,73.0,-100.00,South,173,2.0,6.0,71,-99.99,,,0.50,274.000000,,2013-07-12 20:47:00,
2013-07-12 16:55:00,83.0,73.0,-100.00,South,173,2.0,6.0,71,-99.99,,,0.50,274.000000,,2013-07-12 20:55:00,
2013-07-12 17:03:00,83.0,73.0,-100.00,South,173,2.0,6.0,71,-99.99,,,0.50,274.000000,,2013-07-12 21:03:00,
2013-07-12 17:04:00,82.0,74.0,-100.00,SSE,155,3.0,9.0,77,0.00,,,0.02,183.000000,,2013-07-12 21:04:00,
2013-07-12 17:36:00,82.0,74.0,-100.00,SSE,155,3.0,9.0,77,0.00,,,0.02,183.000000,,2013-07-12 21:36:00,
2013-07-12 17:49:00,82.0,74.0,-100.00,SSE,155,3.0,9.0,77,0.00,,,0.02,183.000000,,2013-07-12 21:49:00,
2013-07-12 17:59:00,82.0,74.0,-100.00,SSE,155,3.0,9.0,77,0.00,,,0.02,183.000000,,2013-07-12 21:59:00,
2013-07-12 18:04:00,80.0,74.0,-100.00,South,176,3.0,7.0,81,0.00,,,0.02,197.000000,,2013-07-12 22:04:00,
2013-07-12 18:34:00,80.0,74.0,-100.00,South,176,3.0,7.0,81,0.00,,,0.02,197.000000,,2013-07-12 22:34:00,
2013-07-12 18:47:00,80.0,74.0,-100.00,South,176,3.0,7.0,81,0.00,,,0.02,197.000000,,2013-07-12 22:47:00,
2013-07-12 18:56:00,80.0,74.0,-100.00,South,176,3.0,7.0,81,0.00,,,0.02,197.000000,,2013-07-12 22:56:00,
2013-07-12 19:04:00,77.0,73.0,-100.00,ESE,119,2.0,6.0,88,0.00,,,0.02,66.000000,,2013-07-12 23:04:00,
2013-07-12 19:37:00,77.0,73.0,-100.00,ESE,119,2.0,6.0,88,0.00,,,0.02,66.000000,,2013-07-12 23:37:00,
2013-07-12 19:45:00,77.0,73.0,-100.00,ESE,119,2.0,6.0,88,0.00,,,0.02,66.000000,,2013-07-12 23:45:00,
2013-07-12 19:58:00,77.0,73.0,-100.00,ESE,119,2.0,6.0,88,0.00,,,0.02,66.000000,,2013-07-12 23:58:00,
2013-07-12 20:04:00,76.0,74.0,-100.00,SE,133,1.0,5.0,92,0.02,,,0.04,35.000000,,2013-07-13 00:04:00,
2013-07-12 20:27:00,76.0,74.0,-100.00,SE,133,1.0,5.0,92,0.02,,,0.04,35.000000,,2013-07-13 00:27:00,
2013-07-12 20:34:00,76.0,74.0,-100.00,SE,133,1.0,5.0,92,0.02,,,0.04,35.000000,,2013-07-13 00:34:00,
2013-07-12 20:49:00,76.0,74.0,-100.00,SE,133,1.0,5.0,92,0.02,,,0.04,35.000000,,2013-07-13 00:49:00,
2013-07-12 20:56:00,76.0,74.0,-100.00,SE,133,1.0,5.0,92,0.02,,,0.04,35.000000,,2013-07-13 00:56:00,
2013-07-12 21:04:00,76.0,74.0,-100.00,ENE,57,1.0,4.0,94,0.01,,,0.05,3.000000,,2013-07-13 01:04:00,
2013-07-12 21:25:00,76.0,74.0,-100.00,ENE,57,1.0,4.0,94,0.01,,,0.05,3.000000,,2013-07-13 01:25:00,
2013-07-12 21:41:00,76.0,74.0,-100.00,ENE,57,1.0,4.0,94,0.01,,,0.05,3.000000,,2013-07-13 01:41:00,
2013-07-12 21:50:00,76.0,74.0,-100.00,ENE,57,1.0,4.0,94,0.01,,,0.05,3.000000,,2013-07-13 01:50:00,
2013-07-12 21:57:00,76.0,74.0,-100.00,ENE,57,1.0,4.0,94,0.01,,,0.05,3.000000,,2013-07-13 01:57:00,
2013-07-12 22:04:00,75.0,73.0,-100.00,West,280,0.0,4.0,95,0.00,,,0.03,0.000000,,2013-07-13 02:04:00,
2013-07-12 22:38:00,75.0,73.0,-100.00,West,280,0.0,4.0,95,0.00,,,0.03,0.000000,,2013-07-13 02:38:00,
2013-07-12 22:48:00,75.0,73.0,-100.00,West,280,0.0,4.0,95,0.00,,,0.03,0.000000,,2013-07-13 02:48:00,
2013-07-12 23:37:00,75.0,73.0,-100.00,ESE,108,0.0,0.0,95,0.00,,,0.03,0.000000,,2013-07-13 03:37:00,
2013-07-12 23:47:00,75.0,73.0,-100.00,ESE,108,0.0,0.0,95,0.00,,,0.03,0.000000,,2013-07-13 03:47:00,
2013-07-12 23:57:00,75.0,73.0,-100.00,ESE,108,0.0,0.0,95,0.00,,,0.03,0.000000,,2013-07-13 03:57:00,